Hourly Data Report for September 22, 2017

All times are specified in Local Standard Time (LST). Add 1 hour to adjust for Daylight Saving Time where and when it is observed.

GRISE FIORD CLIMATE
NUNAVUT

76°25'22.040" N
82°54'08.020" W
44.50 m
2402351
71971
NGC

Download Data

Hourly Data (September 2017)
Hourly Data Report for September 22, 2017
Temp Definition
°C
Dew Point Temp Definition
°C
Rel Hum Definition
%
Wind Dir Definition
10's deg

Wind Spd Definition
km/h
Visibility Definition
km
Stn Press Definition
kPa
Hmdx Definition


Wind Chill Definition


Weather Definition


TIME
00:00 -2.4 -3.7 91 11 5   101.38   -4 LegendNANA
01:00 -2.9 -4.4 90 5 4   101.34   -4 LegendNANA
02:00 -2.7 -4.6 87 13 2   101.30   -3 LegendNANA
03:00 -2.3 -4.4 85 10 5   101.28   -4 LegendNANA
04:00 -1.7 -2.9 91 15 13   101.28   -6 LegendNANA
05:00 -2.3 -3.4 92 11 3   101.25   -3 LegendNANA
06:00 -2.1 -2.9 94 9 2   101.21   -3 LegendNANA
07:00 -1.6 -4.0 84 14 9   101.18   -5 LegendNANA
08:00 -1.7 -2.4 95 15 6   101.18   -4 LegendNANA
09:00 -1.7 -2.5 94 15 9   101.12   -5 LegendNANA
10:00 -1.6 -2.7 92 18 3   101.08   -3 LegendNANA
11:00 -1.3 -3.0 88 15 4   101.07   -3 LegendNANA
12:00 -1.2 -3.4 85 0 1   101.06   -2 LegendNANA
13:00 -1.4 -2.5 92 16 8   101.06   -4 LegendNANA
14:00 -1.5 -3.1 89 17 3   101.05   -3 LegendNANA
15:00 -1.5 -2.6 93 16 7   101.02   -4 LegendNANA
16:00 -1.6 -2.6 93 19 4   101.02   -3 LegendNANA
17:00 0.0 -5.6 66 32 14   100.99   -4 LegendNANA
18:00 -0.3 -5.2 70 2 27   100.98   -7 LegendNANA
19:00 -1.2 -6.3 68 1 33   100.93   -8 LegendNANA
20:00 -0.6 -5.8 68 3 35   100.91   -8 LegendNANA
21:00 -1.0 -6.0 69 2 42   100.88   -9 LegendNANA
22:00 -1.5 -6.3 70 5 27   100.85   -8 LegendNANA
23:00 -1.8 -5.0 79 24 11   100.84   -6 LegendNANA

Notes on Data Quality.

Legend

  • E = Estimated
  • M = Missing
  • NA = Not Available
  • ‡ = Partner data that is not subject to review by the National Climate Archives
Date modified: